DW0268 Weather Reports


Display with metric or nautical units.
time (UTC)temp
F
wind
direction
speed
MPH
gust
MPH
rain 1hr
in
rain 24hr
in
rain mn
in
humidity
%
barometer
mb
20260508093035 51 201 3.0 5.0 0.00 0.00 0.00 86 1017.9
20260508091533 51 197 3.0 5.0 0.00 0.00 0.00 86 1018.0
20260508090034 52 175 1.0 3.0 0.00 0.00 0.00 85 1017.9
20260508084530 52 175 2.0 4.0 0.00 0.00 0.00 84 1018.1
20260508083029 52 175 3.0 5.0 0.00 0.00 0.00 84 1018.1
20260508081533 52 171 0.0 3.0 0.00 0.00 0.00 85 1018.2
20260508080026 52 171 1.0 4.0 0.00 0.00 0.00 85 1018.5
20260508074524 53 192 1.0 5.0 0.00 0.00 0.00 83 1018.5
20260508073024 53 187 3.0 5.0 0.00 0.00 0.00 84 1018.6
20260508071528 53 181 3.0 4.0 0.00 0.00 0.00 84 1018.8
20260508070020 53 180 3.0 4.0 0.00 0.00 0.00 85 1019.0
20260508064521 53 180 2.0 4.0 0.00 0.00 0.00 85 1018.9
20260508063019 53 174 4.0 5.0 0.00 0.00 0.00 84 1019.0
20260508061521 54 172 2.0 4.0 0.00 0.00 0.00 82 1019.0
20260508060015 54 172 1.0 3.0 0.00 0.00 0.00 82 1019.1
20260508054516 54 172 1.0 3.0 0.00 0.00 0.00 82 1018.9
20260508053011 54 169 1.0 3.0 0.00 0.00 0.00 82 1019.0
20260508051517 54 168 1.0 3.0 0.00 0.00 0.00 83 1019.1
20260508050010 54 173 1.0 4.0 0.00 0.00 0.00 82 1018.9
20260508044505 55 167 1.0 3.0 0.00 0.00 0.00 81 1019.0
20260508043004 55 155 1.0 3.0 0.00 0.00 0.00 80 1019.1
20260508041503 55 150 3.0 5.0 0.00 0.00 0.00 80 1018.9
20260508040008 55 156 2.0 3.0 0.00 0.00 0.00 80 1018.8
20260508034502 56 162 3.0 5.0 0.00 0.00 0.00 80 1019.0
20260508033004 56 148 2.0 4.0 0.00 0.00 0.00 80 1019.2
20260508031501 56 138 1.0 3.0 0.00 0.00 0.00 79 1019.1
20260508030001 57 137 3.0 5.0 0.00 0.00 0.00 79 1018.9
20260508024500 57 141 2.0 5.0 0.00 0.00 0.00 78 1018.9
20260508023100 58 140 3.0 5.0 0.00 0.00 0.00 77 1018.7
20260508021559 58 138 3.0 5.0 0.00 0.00 0.00 77 1018.5
20260508020059 59 137 2.0 4.0 0.00 0.00 0.00 75 1018.4
20260508014557 59 133 3.0 5.0 0.00 0.00 0.00 72 1018.1
20260508013056 60 161 2.0 3.0 0.00 0.00 0.00 71 1018.2
20260508011605 60 163 3.0 5.0 0.00 0.00 0.00 69 1018.2
20260508010054 62 155 2.0 3.0 0.00 0.00 0.00 65 1018.2
20260508004555 63 142 3.0 4.0 0.00 0.00 0.00 60 1018.1
20260508003050 64 140 2.0 4.0 0.00 0.00 0.00 57 1018.0
20260508001550 65 144 1.0 4.0 0.00 0.00 0.00 52 1018.0
20260508000049 65 136 2.0 4.0 0.00 0.00 0.00 52 1018.0
20260507234558 65 111 4.0 9.0 0.00 0.00 0.00 50 1017.9
20260507233047 66 148 2.0 5.0 0.00 0.00 0.00 50 1017.9
20260507231551 66 121 2.0 7.0 0.00 0.00 0.00 49 1017.9
20260507230050 67 134 3.0 7.0 0.00 0.00 0.00 49 1017.9
20260507224545 67 57 2.0 5.0 0.00 0.00 0.00 49 1018.2
20260507223045 67 66 0.0 4.0 0.00 0.00 0.00 48 1018.2
20260507221541 67 156 1.0 3.0 0.00 0.00 0.00 50 1018.2
20260507220039 66 186 5.0 9.0 0.00 0.00 0.00 47 1018.3
20260507214538 67 179 2.0 6.0 0.00 0.00 0.00 49 1018.3
20260507213036 66 153 1.0 8.0 0.00 0.00 0.00 48 1018.4
20260507211535 66 66 2.0 8.0 0.00 0.00 0.00 47 1018.4
20260507210034 66 76 2.0 6.0 0.00 0.00 0.00 49 1018.5
20260507204531 66 86 0.0 7.0 0.00 0.00 0.00 45 1018.6
20260507203029 65 115 1.0 4.0 0.00 0.00 0.00 45 1018.7
20260507201530 64 348 2.0 5.0 0.00 0.00 0.00 46 1018.8
20260507200041 65 227 2.0 4.0 0.00 0.00 0.00 45 1019.0
20260507194525 65 360 4.0 9.0 0.00 0.00 0.00 48 1019.2
20260507193023 64 86 5.0 9.0 0.00 0.00 0.00 47 1019.3
20260507191522 64 84 3.0 9.0 0.00 0.00 0.00 49 1019.4
20260507190022 64 76 4.0 8.0 0.00 0.00 0.00 46 1019.4
20260507184519 64 65 4.0 9.0 0.00 0.00 0.00 49 1019.5
20260507183032 63 18 1.0 11.0 0.00 0.00 0.00 53 1019.6
20260507181516 63 296 2.0 5.0 0.00 0.00 0.00 50 1019.7
20260507180020 63 348 1.0 9.0 0.00 0.00 0.00 50 1020.1
20260507174515 62 355 5.0 11.0 0.00 0.00 0.00 55 1020.3
20260507173012 62 21 1.0 9.0 0.00 0.00 0.00 56 1020.7
20260507171511 62 24 2.0 8.0 0.00 0.00 0.00 58 1020.7
20260507170010 60 292 3.0 11.0 0.00 0.00 0.00 58 1020.8
20260507164509 61 29 2.0 10.0 0.00 0.00 0.00 61 1020.8
20260507163008 61 343 2.0 5.0 0.00 0.00 0.00 59 1021.0
20260507161508 61 63 3.0 8.0 0.00 0.00 0.00 58 1021.0
20260507160005 60 53 3.0 8.0 0.00 0.00 0.00 65 1021.2
20260507154506 61 44 2.0 8.0 0.00 0.00 0.00 63 1021.1
20260507153002 60 32 1.0 5.0 0.00 0.00 0.00 65 1021.3
20260507151558 60 40 2.0 8.0 0.00 0.00 0.00 68 1021.4
20260507150103 59 71 4.0 9.0 0.00 0.00 0.00 69 1021.6
20260507144553 58 55 1.0 6.0 0.00 0.00 0.00 70 1021.5
20260507143054 58 91 4.0 9.0 0.00 0.00 0.00 70 1021.2
20260507141552 57 60 4.0 8.0 0.00 0.00 0.00 72 1021.6
20260507140044 56 68 4.0 11.0 0.00 0.00 0.00 74 1021.4
20260507134551 55 61 5.0 10.0 0.00 0.00 0.00 77 1021.5
20260507133039 54 81 2.0 6.0 0.00 0.00 0.00 80 1021.5
20260507131539 53 44 2.0 6.0 0.00 0.00 0.00 81 1021.3
20260507130035 52 5 2.0 9.0 0.00 0.00 0.00 83 1021.2
20260507124534 51 38 1.0 6.0 0.00 0.00 0.00 86 1020.8
20260507123036 50 59 4.0 11.0 0.00 0.00 0.00 87 1020.9
20260507121531 49 360 5.0 9.0 0.00 0.00 0.00 89 1020.7
20260507120030 48 355 4.0 8.0 0.00 0.00 0.00 90 1020.6
20260507114533 48 355 4.0 6.0 0.00 0.00 0.00 90 1020.6
20260507113027 47 355 2.0 5.0 0.00 0.00 0.00 90 1020.4
20260507111525 47 355 3.0 6.0 0.00 0.00 0.00 90 1020.1
20260507110024 47 355 3.0 6.0 0.00 0.00 0.00 90 1019.9
20260507104524 47 355 3.0 5.0 0.00 0.00 0.00 90 1019.9
20260507103023 47 360 2.0 5.0 0.00 0.00 0.00 90 1019.8
20260507101520 48 355 1.0 5.0 0.00 0.00 0.00 90 1019.9
20260507100014 48 355 1.0 5.0 0.00 0.00 0.00 89 1019.8
20260507094512 49 345 3.0 6.0 0.00 0.00 0.00 89 1019.6